Time,TemperatureF,DewpointF,PressureIn,WindDirection,WindDirectionDegrees,WindSpeedMPH,WindSpeedGustMPH,Humidity,HourlyPrecipIn,Conditions,Clouds,dailyrainin,SolarRadiationWatts/m^2,SoftwareType,DateUTC
2013-02-04 00:02:00,27.2,21.0,29.80,SW,223,0.0,-999.0,77,-99.99,,,0.00,0,weatherlink.com 1.10,2013-02-04 05:02:00,
2013-02-04 00:17:00,27.5,21.0,29.81,WSW,257,3.0,-999.0,77,-99.99,,,0.00,0,weatherlink.com 1.10,2013-02-04 05:17:00,
2013-02-04 00:32:00,27.4,21.0,29.81,West,273,8.0,-999.0,78,-99.99,,,0.00,0,weatherlink.com 1.10,2013-02-04 05:32:00,
2013-02-04 00:47:00,27.2,21.0,29.81,West,261,5.0,-999.0,77,-99.99,,,0.00,0,weatherlink.com 1.10,2013-02-04 05:47:00,
2013-02-04 01:02:00,27.0,20.0,29.81,WNW,282,3.0,-999.0,76,-99.99,,,0.00,0,weatherlink.com 1.10,2013-02-04 06:02:00,
2013-02-04 01:17:00,26.8,20.0,29.81,West,277,6.0,-999.0,74,-99.99,,,0.00,0,weatherlink.com 1.10,2013-02-04 06:17:00,
2013-02-04 01:33:00,26.7,18.0,29.82,West,273,6.0,-999.0,71,-99.99,,,0.00,0,weatherlink.com 1.10,2013-02-04 06:33:00,
2013-02-04 01:47:00,26.7,18.0,29.82,West,281,4.0,-999.0,69,-99.99,,,0.00,0,weatherlink.com 1.10,2013-02-04 06:47:00,
2013-02-04 02:02:00,26.5,16.0,29.83,West,277,10.0,-999.0,66,-99.99,,,0.00,0,weatherlink.com 1.10,2013-02-04 07:02:00,
2013-02-04 02:17:00,26.3,16.0,29.83,West,281,4.0,-999.0,64,-99.99,,,0.00,0,weatherlink.com 1.10,2013-02-04 07:17:00,
2013-02-04 02:32:00,26.0,16.0,29.84,West,264,6.0,-999.0,67,-99.99,,,0.00,0,weatherlink.com 1.10,2013-02-04 07:32:00,
2013-02-04 02:47:00,25.5,17.0,29.84,WNW,282,5.0,-999.0,69,-99.99,,,0.00,0,weatherlink.com 1.10,2013-02-04 07:47:00,
2013-02-04 03:03:00,25.2,16.0,29.85,WNW,286,7.0,-999.0,69,-99.99,,,0.00,0,weatherlink.com 1.10,2013-02-04 08:03:00,
2013-02-04 03:18:00,25.1,16.0,29.85,WNW,283,6.0,-999.0,69,-99.99,,,0.00,0,weatherlink.com 1.10,2013-02-04 08:18:00,
2013-02-04 03:33:00,24.9,16.0,29.85,West,265,1.0,-999.0,68,-99.99,,,0.00,0,weatherlink.com 1.10,2013-02-04 08:33:00,
2013-02-04 03:48:00,24.7,15.0,29.86,West,263,3.0,-999.0,66,-99.99,,,0.00,0,weatherlink.com 1.10,2013-02-04 08:48:00,
2013-02-04 04:03:00,24.4,14.0,29.86,West,269,7.0,-999.0,65,-99.99,,,0.00,0,weatherlink.com 1.10,2013-02-04 09:03:00,
2013-02-04 04:18:00,24.2,14.0,29.87,West,265,5.0,-999.0,64,-99.99,,,0.00,0,weatherlink.com 1.10,2013-02-04 09:18:00,
2013-02-04 04:33:00,24.0,13.0,29.88,WSW,257,9.0,-999.0,64,-99.99,,,0.00,0,weatherlink.com 1.10,2013-02-04 09:33:00,
2013-02-04 04:48:00,23.8,13.0,29.89,West,280,4.0,-999.0,64,-99.99,,,0.00,0,weatherlink.com 1.10,2013-02-04 09:48:00,
2013-02-04 05:03:00,23.5,13.0,29.89,WNW,284,9.0,-999.0,64,-99.99,,,0.00,0,weatherlink.com 1.10,2013-02-04 10:03:00,
2013-02-04 05:18:00,23.3,12.0,29.90,WNW,282,8.0,-999.0,63,-99.99,,,0.00,0,weatherlink.com 1.10,2013-02-04 10:18:00,
2013-02-04 05:33:00,23.1,12.0,29.90,West,273,6.0,-999.0,63,-99.99,,,0.00,0,weatherlink.com 1.10,2013-02-04 10:33:00,
2013-02-04 05:48:00,23.0,12.0,29.91,WSW,254,6.0,-999.0,63,-99.99,,,0.00,0,weatherlink.com 1.10,2013-02-04 10:48:00,
2013-02-04 06:03:00,22.8,12.0,29.92,West,275,4.0,-999.0,63,-99.99,,,0.00,0,weatherlink.com 1.10,2013-02-04 11:03:00,
2013-02-04 06:18:00,22.5,12.0,29.92,West,270,7.0,-999.0,63,-99.99,,,0.00,0,weatherlink.com 1.10,2013-02-04 11:18:00,
2013-02-04 06:34:00,22.5,12.0,29.93,WNW,286,6.0,-999.0,63,-99.99,,,0.00,0,weatherlink.com 1.10,2013-02-04 11:34:00,
2013-02-04 06:49:00,22.5,12.0,29.93,West,278,2.0,-999.0,63,-99.99,,,0.00,0,weatherlink.com 1.10,2013-02-04 11:49:00,
2013-02-04 07:04:00,22.4,11.0,29.93,WNW,284,3.0,-999.0,63,-99.99,,,0.00,0,weatherlink.com 1.10,2013-02-04 12:04:00,
2013-02-04 07:19:00,22.5,12.0,29.94,WSW,255,3.0,-999.0,63,-99.99,,,0.00,12,weatherlink.com 1.10,2013-02-04 12:19:00,
2013-02-04 07:34:00,22.9,12.0,29.95,WNW,284,6.0,-999.0,63,-99.99,,,0.00,21,weatherlink.com 1.10,2013-02-04 12:34:00,
2013-02-04 07:49:00,23.1,12.0,29.96,WSW,257,5.0,-999.0,63,-99.99,,,0.00,35,weatherlink.com 1.10,2013-02-04 12:49:00,
2013-02-04 08:04:00,23.5,12.0,29.96,WNW,282,5.0,-999.0,62,-99.99,,,0.00,58,weatherlink.com 1.10,2013-02-04 13:04:00,
2013-02-04 08:19:00,23.9,12.0,29.96,WNW,302,2.0,-999.0,62,-99.99,,,0.00,97,weatherlink.com 1.10,2013-02-04 13:19:00,
2013-02-04 08:34:00,24.4,13.0,29.96,West,280,4.0,-999.0,62,-99.99,,,0.00,190,weatherlink.com 1.10,2013-02-04 13:34:00,
2013-02-04 08:49:00,25.1,12.0,29.97,West,275,7.0,-999.0,59,-99.99,,,0.00,237,weatherlink.com 1.10,2013-02-04 13:49:00,
2013-02-04 09:03:00,25.8,13.0,29.97,NW,304,8.0,-999.0,58,-99.99,,,0.00,281,weatherlink.com 1.10,2013-02-04 14:03:00,
2013-02-04 09:18:00,26.4,13.0,29.97,WSW,250,4.0,-999.0,58,-99.99,,,0.00,323,weatherlink.com 1.10,2013-02-04 14:18:00,
2013-02-04 09:33:00,27.0,13.0,29.98,West,273,2.0,-999.0,55,-99.99,,,0.00,348,weatherlink.com 1.10,2013-02-04 14:33:00,
2013-02-04 09:49:00,27.1,12.0,29.97,West,275,9.0,-999.0,54,-99.99,,,0.00,411,weatherlink.com 1.10,2013-02-04 14:49:00,
2013-02-04 10:04:00,27.9,11.0,29.97,NW,306,10.0,-999.0,50,-99.99,,,0.00,438,weatherlink.com 1.10,2013-02-04 15:04:00,
2013-02-04 10:19:00,27.9,11.0,29.97,West,273,5.0,-999.0,50,-99.99,,,0.00,466,weatherlink.com 1.10,2013-02-04 15:19:00,
2013-02-04 10:34:00,28.4,11.0,29.97,WNW,297,7.0,-999.0,49,-99.99,,,0.00,506,weatherlink.com 1.10,2013-02-04 15:34:00,
2013-02-04 10:49:00,28.5,11.0,29.97,West,277,14.0,-999.0,49,-99.99,,,0.00,584,weatherlink.com 1.10,2013-02-04 15:49:00,
2013-02-04 11:04:00,29.3,12.0,29.96,West,277,8.0,-999.0,49,-99.99,,,0.00,582,weatherlink.com 1.10,2013-02-04 16:04:00,
2013-02-04 11:19:00,28.1,11.0,29.96,West,266,11.0,-999.0,48,-99.99,,,0.00,181,weatherlink.com 1.10,2013-02-04 16:19:00,
2013-02-04 11:34:00,27.9,11.0,29.96,WNW,286,9.0,-999.0,49,-99.99,,,0.00,148,weatherlink.com 1.10,2013-02-04 16:34:00,
2013-02-04 11:49:00,28.7,12.0,29.96,WNW,283,6.0,-999.0,49,-99.99,,,0.00,585,weatherlink.com 1.10,2013-02-04 16:49:00,
2013-02-04 12:04:00,28.8,11.0,29.96,WNW,284,7.0,-999.0,48,-99.99,,,0.00,631,weatherlink.com 1.10,2013-02-04 17:04:00,
2013-02-04 12:19:00,28.3,12.0,29.95,West,263,9.0,-999.0,50,-99.99,,,0.00,738,weatherlink.com 1.10,2013-02-04 17:19:00,
2013-02-04 12:35:00,29.3,11.0,29.94,WSW,254,8.0,-999.0,46,-99.99,,,0.00,626,weatherlink.com 1.10,2013-02-04 17:35:00,
2013-02-04 12:50:00,29.8,11.0,29.94,West,263,7.0,-999.0,45,-99.99,,,0.00,146,weatherlink.com 1.10,2013-02-04 17:50:00,
2013-02-04 13:04:00,30.0,11.0,29.94,West,279,4.0,-999.0,46,-99.99,,,0.00,680,weatherlink.com 1.10,2013-02-04 18:04:00,
2013-02-04 13:19:00,29.7,10.0,29.93,WSW,245,7.0,-999.0,44,-99.99,,,0.00,158,weatherlink.com 1.10,2013-02-04 18:19:00,
2013-02-04 13:35:00,30.5,11.0,29.93,NW,310,4.0,-999.0,44,-99.99,,,0.00,522,weatherlink.com 1.10,2013-02-04 18:35:00,
2013-02-04 13:50:00,30.3,11.0,29.92,SSW,203,12.0,-999.0,44,-99.99,,,0.00,469,weatherlink.com 1.10,2013-02-04 18:50:00,
2013-02-04 14:05:00,30.4,10.0,29.92,NW,309,11.0,-999.0,42,-99.99,,,0.00,411,weatherlink.com 1.10,2013-02-04 19:05:00,
2013-02-04 14:20:00,30.3,10.0,29.91,WSW,242,4.0,-999.0,43,-99.99,,,0.00,345,weatherlink.com 1.10,2013-02-04 19:20:00,
2013-02-04 14:35:00,30.1,10.0,29.91,West,276,11.0,-999.0,44,-99.99,,,0.00,366,weatherlink.com 1.10,2013-02-04 19:35:00,
2013-02-04 14:50:00,30.1,10.0,29.92,West,272,5.0,-999.0,43,-99.99,,,0.00,397,weatherlink.com 1.10,2013-02-04 19:50:00,
2013-02-04 15:05:00,30.3,10.0,29.91,West,281,7.0,-999.0,43,-99.99,,,0.00,320,weatherlink.com 1.10,2013-02-04 20:05:00,
2013-02-04 15:19:00,30.1,10.0,29.92,SW,236,4.0,-999.0,43,-99.99,,,0.00,316,weatherlink.com 1.10,2013-02-04 20:19:00,
2013-02-04 15:34:00,30.5,10.0,29.92,NW,316,7.0,-999.0,42,-99.99,,,0.00,306,weatherlink.com 1.10,2013-02-04 20:34:00,
2013-02-04 15:49:00,30.2,10.0,29.92,West,275,5.0,-999.0,43,-99.99,,,0.00,142,weatherlink.com 1.10,2013-02-04 20:49:00,
2013-02-04 16:04:00,29.6,10.0,29.92,SW,235,5.0,-999.0,44,-99.99,,,0.00,81,weatherlink.com 1.10,2013-02-04 21:04:00,
2013-02-04 16:19:00,29.3,10.0,29.93,WSW,258,5.0,-999.0,45,-99.99,,,0.00,70,weatherlink.com 1.10,2013-02-04 21:19:00,
2013-02-04 16:34:00,29.3,10.0,29.93,West,273,3.0,-999.0,45,-99.99,,,0.00,47,weatherlink.com 1.10,2013-02-04 21:34:00,
2013-02-04 16:49:00,29.1,10.0,29.93,West,279,4.0,-999.0,45,-99.99,,,0.00,23,weatherlink.com 1.10,2013-02-04 21:49:00,
2013-02-04 17:05:00,28.9,10.0,29.94,WNW,288,10.0,-999.0,46,-99.99,,,0.00,12,weatherlink.com 1.10,2013-02-04 22:05:00,
2013-02-04 17:19:00,28.6,10.0,29.94,West,262,4.0,-999.0,46,-99.99,,,0.00,0,weatherlink.com 1.10,2013-02-04 22:19:00,
2013-02-04 17:50:00,28.2,11.0,29.95,WSW,244,1.0,-999.0,48,-99.99,,,0.00,0,weatherlink.com 1.10,2013-02-04 22:50:00,
2013-02-04 18:04:00,28.0,11.0,29.95,SW,236,0.0,-999.0,49,-99.99,,,0.00,0,weatherlink.com 1.10,2013-02-04 23:04:00,
2013-02-04 18:20:00,27.8,11.0,29.96,SW,234,0.0,-999.0,50,-99.99,,,0.00,0,weatherlink.com 1.10,2013-02-04 23:20:00,
2013-02-04 18:34:00,27.7,11.0,29.96,West,268,3.0,-999.0,50,-99.99,,,0.00,0,weatherlink.com 1.10,2013-02-04 23:34:00,
2013-02-04 18:49:00,27.6,11.0,29.96,SSW,207,0.0,-999.0,51,-99.99,,,0.00,0,weatherlink.com 1.10,2013-02-04 23:49:00,
2013-02-04 19:04:00,27.3,12.0,29.96,SW,232,0.0,-999.0,52,-99.99,,,0.00,0,weatherlink.com 1.10,2013-02-05 00:04:00,
2013-02-04 19:19:00,27.1,12.0,29.96,SW,233,0.0,-999.0,53,-99.99,,,0.00,0,weatherlink.com 1.10,2013-02-05 00:19:00,
2013-02-04 19:34:00,26.9,12.0,29.96,SW,233,1.0,-999.0,54,-99.99,,,0.00,0,weatherlink.com 1.10,2013-02-05 00:34:00,
2013-02-04 19:49:00,26.5,12.0,29.97,SW,233,0.0,-999.0,55,-99.99,,,0.00,0,weatherlink.com 1.10,2013-02-05 00:49:00,
2013-02-04 20:04:00,26.4,12.0,29.96,SW,233,0.0,-999.0,55,-99.99,,,0.00,0,weatherlink.com 1.10,2013-02-05 01:04:00,
2013-02-04 20:19:00,26.3,12.0,29.96,SW,233,0.0,-999.0,55,-99.99,,,0.00,0,weatherlink.com 1.10,2013-02-05 01:19:00,
2013-02-04 20:34:00,25.8,13.0,29.96,SW,232,0.0,-999.0,58,-99.99,,,0.00,0,weatherlink.com 1.10,2013-02-05 01:34:00,
2013-02-04 20:49:00,25.0,13.0,29.96,SW,233,0.0,-999.0,60,-99.99,,,0.00,0,weatherlink.com 1.10,2013-02-05 01:49:00,
2013-02-04 21:05:00,24.4,13.0,29.96,SW,232,0.0,-999.0,62,-99.99,,,0.00,0,weatherlink.com 1.10,2013-02-05 02:05:00,
2013-02-04 21:20:00,24.3,13.0,29.96,SW,233,0.0,-999.0,63,-99.99,,,0.00,0,weatherlink.com 1.10,2013-02-05 02:20:00,
2013-02-04 21:35:00,24.8,14.0,29.95,SW,233,0.0,-999.0,63,-99.99,,,0.00,0,weatherlink.com 1.10,2013-02-05 02:35:00,
2013-02-04 21:50:00,25.4,14.0,29.96,SW,233,0.0,-999.0,62,-99.99,,,0.00,0,weatherlink.com 1.10,2013-02-05 02:50:00,
2013-02-04 22:05:00,26.2,14.0,29.96,SW,233,0.0,-999.0,61,-99.99,,,0.00,0,weatherlink.com 1.10,2013-02-05 03:05:00,
2013-02-04 22:20:00,26.7,14.0,29.96,SW,223,0.0,-999.0,60,-99.99,,,0.00,0,weatherlink.com 1.10,2013-02-05 03:20:00,
2013-02-04 22:35:00,27.0,15.0,29.96,SW,223,1.0,-999.0,61,-99.99,,,0.00,0,weatherlink.com 1.10,2013-02-05 03:35:00,
2013-02-04 22:50:00,27.3,15.0,29.96,SW,223,0.0,-999.0,61,-99.99,,,0.00,0,weatherlink.com 1.10,2013-02-05 03:50:00,
2013-02-04 23:05:00,27.4,15.0,29.95,SSE,151,0.0,-999.0,60,-99.99,,,0.00,0,weatherlink.com 1.10,2013-02-05 04:05:00,
2013-02-04 23:20:00,27.5,16.0,29.95,SSE,151,0.0,-999.0,61,-99.99,,,0.00,0,weatherlink.com 1.10,2013-02-05 04:20:00,
2013-02-04 23:35:00,27.6,18.0,29.95,SW,214,2.0,-999.0,66,-99.99,,,0.00,0,weatherlink.com 1.10,2013-02-05 04:35:00,
2013-02-04 23:50:00,27.3,19.0,29.95,SSW,194,2.0,-999.0,72,-99.99,,,0.00,0,weatherlink.com 1.10,2013-02-05 04:50:00,